Time,TemperatureF,DewpointF,PressureIn,WindDirection,WindDirectionDegrees,WindSpeedMPH,WindSpeedGustMPH,Humidity,HourlyPrecipIn,Conditions,Clouds,dailyrainin,SoftwareType,DateUTC
2013-07-31 00:22:00,83.0,75.0,26.41,ESE,122,13.0,17.0,78,0.00,,,0.00,,2013-07-31 04:22:00,
2013-07-31 00:32:00,83.0,75.0,26.41,ESE,122,13.0,17.0,78,0.00,,,0.00,,2013-07-31 04:32:00,
2013-07-31 00:42:00,83.0,75.0,26.41,ESE,122,13.0,17.0,78,0.00,,,0.00,,2013-07-31 04:42:00,
2013-07-31 01:12:00,83.0,77.0,26.41,East,101,12.0,17.0,82,0.00,,,0.00,,2013-07-31 05:12:00,
2013-07-31 01:22:00,83.0,77.0,26.41,ESE,110,10.0,15.0,83,0.00,,,0.00,,2013-07-31 05:22:00,
2013-07-31 01:32:00,83.0,78.0,26.41,ESE,115,13.0,18.0,84,0.00,,,0.00,,2013-07-31 05:32:00,
2013-07-31 01:42:00,83.0,78.0,26.41,ESE,105,11.0,17.0,84,0.00,,,0.00,,2013-07-31 05:42:00,
2013-07-31 01:52:00,83.0,78.0,26.41,East,100,12.0,15.0,84,0.00,,,0.00,,2013-07-31 05:52:00,
2013-07-31 02:02:00,83.0,78.0,26.41,ESE,121,13.0,17.0,84,0.00,,,0.00,,2013-07-31 06:02:00,
2013-07-31 02:12:00,84.0,79.0,26.41,ESE,115,14.0,18.0,84,0.00,,,0.00,,2013-07-31 06:12:00,
2013-07-31 02:22:00,84.0,79.0,26.41,ESE,119,15.0,22.0,84,0.00,,,0.00,,2013-07-31 06:22:00,
2013-07-31 02:32:00,84.0,79.0,26.41,ESE,115,17.0,20.0,84,0.00,,,0.00,,2013-07-31 06:32:00,
2013-07-31 02:43:00,84.0,78.0,26.41,ESE,105,16.0,19.0,83,0.00,,,0.00,,2013-07-31 06:43:00,
2013-07-31 02:53:00,84.0,78.0,26.41,ESE,110,15.0,19.0,83,0.00,,,0.00,,2013-07-31 06:53:00,
2013-07-31 03:02:00,84.0,78.0,26.41,ESE,105,15.0,20.0,83,0.00,,,0.00,,2013-07-31 07:02:00,
2013-07-31 03:12:00,84.0,78.0,26.41,ESE,115,16.0,21.0,83,0.00,,,0.00,,2013-07-31 07:12:00,
2013-07-31 03:22:00,84.0,78.0,26.41,ESE,121,15.0,21.0,82,0.00,,,0.00,,2013-07-31 07:22:00,
2013-07-31 03:32:00,84.0,78.0,26.41,SE,132,18.0,20.0,83,0.00,,,0.00,,2013-07-31 07:32:00,
2013-07-31 03:43:00,83.0,77.0,26.41,SE,131,15.0,20.0,82,0.00,,,0.00,,2013-07-31 07:43:00,
2013-07-31 03:52:00,84.0,78.0,26.41,SE,129,13.0,17.0,83,0.00,,,0.00,,2013-07-31 07:52:00,
2013-07-31 04:02:00,83.0,77.0,26.41,SE,129,18.0,21.0,82,0.00,,,0.00,,2013-07-31 08:02:00,
2013-07-31 04:12:00,83.0,77.0,26.41,ESE,121,14.0,20.0,82,0.00,,,0.00,,2013-07-31 08:12:00,
2013-07-31 04:42:00,84.0,78.0,26.41,ESE,120,17.0,22.0,81,0.00,,,0.00,,2013-07-31 08:42:00,
2013-07-31 04:53:00,83.0,76.0,26.41,SE,133,15.0,21.0,80,0.00,,,0.00,,2013-07-31 08:53:00,
2013-07-31 05:02:00,83.0,76.0,26.41,SE,134,18.0,23.0,80,0.00,,,0.00,,2013-07-31 09:02:00,
2013-07-31 05:12:00,83.0,76.0,26.41,SE,136,17.0,20.0,80,0.00,,,0.00,,2013-07-31 09:12:00,
2013-07-31 05:22:00,83.0,77.0,26.41,SE,132,17.0,19.0,81,0.00,,,0.00,,2013-07-31 09:22:00,
2013-07-31 05:32:00,83.0,77.0,26.41,ESE,122,17.0,19.0,81,0.00,,,0.00,,2013-07-31 09:32:00,
2013-07-31 05:43:00,83.0,77.0,26.41,ESE,119,17.0,21.0,81,0.00,,,0.00,,2013-07-31 09:43:00,
2013-07-31 05:52:00,83.0,77.0,26.41,SE,127,17.0,21.0,81,0.00,,,0.00,,2013-07-31 09:52:00,
2013-07-31 06:12:00,83.0,77.0,26.41,SE,130,17.0,20.0,81,0.00,,,0.00,,2013-07-31 10:12:00,
2013-07-31 06:22:00,83.0,77.0,26.41,SE,140,19.0,22.0,81,0.00,,,0.00,,2013-07-31 10:22:00,
2013-07-31 06:32:00,83.0,77.0,26.41,SE,133,19.0,22.0,81,0.00,,,0.00,,2013-07-31 10:32:00,
2013-07-31 06:44:00,83.0,77.0,26.41,SE,139,19.0,22.0,81,0.00,,,0.00,,2013-07-31 10:44:00,
2013-07-31 06:52:00,83.0,76.0,26.41,SE,138,18.0,22.0,80,0.00,,,0.00,,2013-07-31 10:52:00,
2013-07-31 07:52:00,83.0,76.0,26.41,SE,132,14.0,18.0,79,0.00,,,0.00,,2013-07-31 11:52:00,
2013-07-31 08:02:00,83.0,76.0,26.41,SE,126,13.0,19.0,79,0.00,,,0.00,,2013-07-31 12:02:00,
2013-07-31 08:12:00,83.0,76.0,26.41,SE,126,15.0,19.0,79,0.00,,,0.00,,2013-07-31 12:12:00,
2013-07-31 08:22:00,83.0,76.0,26.41,SE,129,15.0,20.0,79,0.00,,,0.00,,2013-07-31 12:22:00,
2013-07-31 08:33:00,83.0,75.0,26.41,SE,127,16.0,20.0,77,0.00,,,0.00,,2013-07-31 12:33:00,
2013-07-31 08:43:00,84.0,76.0,26.41,SE,134,17.0,21.0,76,0.00,,,0.00,,2013-07-31 12:43:00,
2013-07-31 08:52:00,84.0,76.0,26.41,SE,127,16.0,21.0,76,0.00,,,0.00,,2013-07-31 12:52:00,
2013-07-31 09:12:00,84.0,76.0,26.41,SE,132,18.0,21.0,76,0.00,,,0.00,,2013-07-31 13:12:00,
2013-07-31 09:22:00,85.0,76.0,26.41,SE,129,17.0,22.0,75,0.00,,,0.00,,2013-07-31 13:22:00,
2013-07-31 09:33:00,85.0,76.0,26.41,SE,127,17.0,21.0,75,0.00,,,0.00,,2013-07-31 13:33:00,
2013-07-31 10:43:00,87.0,77.0,26.41,SE,134,17.0,21.0,73,0.00,,,0.00,,2013-07-31 14:43:00,
2013-07-31 10:53:00,87.0,77.0,26.41,SE,127,16.0,20.0,72,0.00,,,0.00,,2013-07-31 14:53:00,
2013-07-31 11:12:00,88.0,78.0,26.41,SE,127,17.0,19.0,72,0.00,,,0.00,,2013-07-31 15:12:00,
2013-07-31 11:22:00,88.0,77.0,26.41,SE,139,15.0,21.0,70,0.00,,,0.00,,2013-07-31 15:22:00,
2013-07-31 11:33:00,89.0,78.0,26.41,SE,132,16.0,19.0,71,0.00,,,0.00,,2013-07-31 15:33:00,
2013-07-31 11:43:00,89.0,77.0,26.41,ESE,122,16.0,20.0,67,0.00,,,0.00,,2013-07-31 15:43:00,
2013-07-31 11:53:00,89.0,77.0,26.41,SE,129,18.0,21.0,67,0.00,,,0.00,,2013-07-31 15:53:00,
2013-07-31 12:02:00,89.0,77.0,26.41,ESE,119,15.0,20.0,67,0.00,,,0.00,,2013-07-31 16:02:00,
2013-07-31 12:12:00,90.0,78.0,26.41,SE,126,15.0,18.0,69,0.00,,,0.00,,2013-07-31 16:12:00,
2013-07-31 12:22:00,90.0,77.0,26.41,SE,132,16.0,19.0,65,0.00,,,0.00,,2013-07-31 16:22:00,
2013-07-31 12:33:00,90.0,77.0,26.41,ESE,120,14.0,18.0,65,0.00,,,0.00,,2013-07-31 16:33:00,
2013-07-31 12:44:00,90.0,78.0,26.41,SE,132,16.0,19.0,68,0.00,,,0.00,,2013-07-31 16:44:00,
2013-07-31 12:52:00,90.0,78.0,26.41,SE,126,14.0,20.0,69,0.00,,,0.00,,2013-07-31 16:52:00,
2013-07-31 13:13:00,91.0,79.0,26.41,SE,139,17.0,19.0,68,0.00,,,0.00,,2013-07-31 17:13:00,
2013-07-31 13:22:00,91.0,78.0,26.41,SE,124,16.0,20.0,66,0.00,,,0.00,,2013-07-31 17:22:00,
2013-07-31 13:33:00,90.0,78.0,26.41,ESE,119,14.0,19.0,67,0.00,,,0.00,,2013-07-31 17:33:00,
2013-07-31 13:43:00,89.0,77.0,26.41,ESE,121,15.0,19.0,68,0.00,,,0.00,,2013-07-31 17:43:00,
2013-07-31 13:53:00,89.0,78.0,26.41,SE,132,15.0,19.0,71,0.00,,,0.00,,2013-07-31 17:53:00,
2013-07-31 14:13:00,90.0,78.0,26.41,SE,135,16.0,21.0,68,0.00,,,0.00,,2013-07-31 18:13:00,
2013-07-31 14:22:00,91.0,79.0,26.41,SE,132,16.0,19.0,68,0.00,,,0.00,,2013-07-31 18:22:00,
2013-07-31 14:33:00,91.0,78.0,26.41,SE,132,16.0,21.0,67,0.00,,,0.00,,2013-07-31 18:33:00,
2013-07-31 14:43:00,91.0,78.0,26.41,SE,125,17.0,20.0,67,0.00,,,0.00,,2013-07-31 18:43:00,
2013-07-31 14:52:00,91.0,78.0,26.41,SE,127,15.0,22.0,67,0.00,,,0.00,,2013-07-31 18:52:00,
2013-07-31 15:03:00,91.0,78.0,26.41,SE,127,16.0,19.0,66,0.00,,,0.00,,2013-07-31 19:03:00,
2013-07-31 15:12:00,90.0,78.0,26.41,ESE,123,17.0,21.0,69,0.00,,,0.00,,2013-07-31 19:12:00,
2013-07-31 15:22:00,90.0,78.0,26.41,SE,137,17.0,21.0,68,0.00,,,0.00,,2013-07-31 19:22:00,
2013-07-31 15:33:00,91.0,79.0,26.41,SE,136,15.0,21.0,69,0.00,,,0.00,,2013-07-31 19:33:00,
2013-07-31 15:43:00,91.0,78.0,26.41,SE,126,17.0,20.0,67,0.00,,,0.00,,2013-07-31 19:43:00,
2013-07-31 15:52:00,91.0,78.0,26.41,ESE,115,15.0,21.0,67,0.00,,,0.00,,2013-07-31 19:52:00,
2013-07-31 16:22:00,90.0,78.0,26.41,SE,137,17.0,21.0,69,0.00,,,0.00,,2013-07-31 20:22:00,
2013-07-31 16:32:00,90.0,78.0,26.41,SE,129,19.0,22.0,69,0.00,,,0.00,,2013-07-31 20:32:00,
2013-07-31 16:43:00,90.0,78.0,26.41,SE,134,20.0,23.0,68,0.00,,,0.00,,2013-07-31 20:43:00,
2013-07-31 16:52:00,90.0,78.0,26.41,SE,130,19.0,23.0,68,0.00,,,0.00,,2013-07-31 20:52:00,
2013-07-31 17:02:00,90.0,77.0,26.41,SE,127,19.0,21.0,66,0.00,,,0.00,,2013-07-31 21:02:00,
2013-07-31 17:22:00,90.0,78.0,26.41,SE,125,17.0,22.0,68,0.00,,,0.00,,2013-07-31 21:22:00,
2013-07-31 17:32:00,90.0,78.0,26.41,SE,142,18.0,22.0,69,0.00,,,0.00,,2013-07-31 21:32:00,
2013-07-31 17:43:00,90.0,78.0,26.41,SE,128,17.0,22.0,68,0.00,,,0.00,,2013-07-31 21:43:00,
2013-07-31 17:53:00,89.0,78.0,26.41,ESE,122,18.0,22.0,70,0.00,,,0.00,,2013-07-31 21:53:00,
2013-07-31 18:02:00,89.0,78.0,26.41,ESE,121,18.0,23.0,70,0.00,,,0.00,,2013-07-31 22:02:00,
2013-07-31 18:43:00,88.0,77.0,26.41,SE,127,19.0,23.0,70,0.00,,,0.00,,2013-07-31 22:43:00,
2013-07-31 18:53:00,88.0,77.0,26.41,ESE,120,15.0,21.0,71,0.00,,,0.00,,2013-07-31 22:53:00,
2013-07-31 19:02:00,88.0,77.0,26.41,ESE,115,19.0,21.0,70,0.00,,,0.00,,2013-07-31 23:02:00,
2013-07-31 19:12:00,88.0,78.0,26.41,ESE,120,20.0,24.0,72,0.00,,,0.00,,2013-07-31 23:12:00,
2013-07-31 19:32:00,87.0,76.0,26.41,ESE,123,18.0,24.0,71,0.00,,,0.00,,2013-07-31 23:32:00,
2013-07-31 19:42:00,86.0,75.0,26.41,ESE,110,18.0,22.0,71,0.00,,,0.00,,2013-07-31 23:42:00,
2013-07-31 19:52:00,86.0,76.0,26.41,SE,125,18.0,22.0,73,0.00,,,0.00,,2013-07-31 23:52:00,
2013-07-31 20:22:00,85.0,76.0,26.41,ESE,122,16.0,21.0,75,0.00,,,0.00,,2013-08-01 00:22:00,
2013-07-31 20:32:00,85.0,76.0,26.41,ESE,110,19.0,22.0,75,0.00,,,0.00,,2013-08-01 00:32:00,
2013-07-31 20:43:00,85.0,77.0,26.41,ESE,121,18.0,23.0,76,0.00,,,0.00,,2013-08-01 00:43:00,
2013-07-31 20:52:00,85.0,76.0,26.41,ESE,119,17.0,23.0,75,0.00,,,0.00,,2013-08-01 00:52:00,
2013-07-31 21:03:00,85.0,76.0,26.41,ESE,115,16.0,23.0,75,0.00,,,0.00,,2013-08-01 01:03:00,
2013-07-31 21:12:00,85.0,76.0,26.41,ESE,115,20.0,23.0,75,0.00,,,0.00,,2013-08-01 01:12:00,
2013-07-31 21:22:00,85.0,76.0,26.41,ESE,115,21.0,24.0,75,0.00,,,0.00,,2013-08-01 01:22:00,
2013-07-31 21:33:00,85.0,76.0,26.41,ESE,123,20.0,24.0,75,0.00,,,0.00,,2013-08-01 01:33:00,
2013-07-31 21:43:00,85.0,76.0,26.41,ESE,121,20.0,24.0,74,0.00,,,0.00,,2013-08-01 01:43:00,
2013-07-31 21:53:00,85.0,76.0,26.41,ESE,115,20.0,24.0,74,0.00,,,0.00,,2013-08-01 01:53:00,
2013-07-31 22:02:00,85.0,75.0,26.41,SE,124,19.0,25.0,73,0.00,,,0.00,,2013-08-01 02:02:00,
2013-07-31 22:12:00,85.0,75.0,26.41,ESE,123,19.0,23.0,73,0.00,,,0.00,,2013-08-01 02:12:00,
2013-07-31 22:52:00,84.0,75.0,26.41,ESE,123,20.0,22.0,74,0.00,,,0.00,,2013-08-01 02:52:00,
2013-07-31 23:02:00,84.0,75.0,26.41,ESE,119,18.0,22.0,74,0.00,,,0.00,,2013-08-01 03:02:00,
2013-07-31 23:43:00,84.0,75.0,26.41,ESE,119,17.0,23.0,74,0.00,,,0.00,,2013-08-01 03:43:00,
2013-07-31 23:53:00,84.0,76.0,26.41,ESE,115,18.0,23.0,77,0.00,,,0.00,,2013-08-01 03:53:00,